Regional Weather Roundup
Issued by NWS Sterling, VA

Home | Current Version | Previous Version | Graphics & Text | Print | Product List | Glossary Off
Versions: 1 2 3 4 5 6 7 8 9 10 11 12 13 14 15 16 17 18 19 20 21 22 23 24 25 26 27 28 29 30 31 32 33 34 35 36 37 38 39 40 41 42 43 44 45 46 47 48 49 50

000
ASUS41 KLWX 262010
RWRLWX

REGIONAL WEATHER ROUNDUP
NATIONAL WEATHER SERVICE BALTIMORE MD/WASHINGTON DC
300 PM EST MON JAN 26 2015

Note: "FAIR" indicates few or no clouds below 12,000 feet
with no significant weather and/or obstructions to visibility.
 TC=TEMPERATURE CELSIUS

 * =Non NWS site. Station does not report precipitation (e.g. rain,
    snow, etc.), thunder, or fog.

DCZ001-MDZ009-015-VAZ040>042-051-053>054-262100-
WASHINGTON METRO

CITY           SKY/WX    TMP DP  RH WIND       PRES   REMARKS
WASHINGTON NAT LGT RAIN  34  29  82 N12       29.72F WCI  25
DULLES         LGT SNOW  32  29  88 N8        29.72S VSB 1   WCI  25
ANDREWS AFB    CLOUDY    31  30  95 NE8       29.68F WCI  24
FT BELVOIR     LGT RAIN  33  30  88 VRB6      29.72F
QUANTICO       CLOUDY    34  30  85 N13       29.72F WCI  25
COLLEGE PARK*  CLOUDY    32  32 100 N7        29.71F
LEESBURG*      LGT SNOW  32  32 100 N8        29.74F WCI  25
MANASSAS*      CLOUDY    34  34 100 NE8       29.72S WCI  27
GAITHERSBURG*  CLOUDY    30  27  86 N3        29.75S

$$

MDZ006>007-011-014-262100-
BALTIMORE METRO

CITY           SKY/WX    TMP DP  RH WIND       PRES   REMARKS
BWI AIRPORT    LGT SNOW  31  28  89 NE12      29.71F FOG     WCI  22
MD SCIENCE CTR   N/A     31  26  82 MISG      29.72F
MARTIN STATE   CLOUDY    34  30  86 NE6       29.74
ANNAPOLIS      CLOUDY    33  29  85 N10       29.70F WCI  25
FORT MEADE*    CLOUDY    32  30  93 NE7       29.73F

$$

MDZ012-015-019>023-262100-
MARYLAND EASTERN SHORE

CITY           SKY/WX    TMP DP  RH WIND       PRES   REMARKS
OCEAN CITY     RAIN      42  40  92 N17G23    29.59F FOG
SALISBURY      CLOUDY    45  38  76 N17G23    29.61R
BAY BRIDGE AP*   N/A     32  32 100 N9        29.69F WCI  24
CAMBRIDGE*     CLOUDY    41  36  81 NE14G22   29.63F
EASTON*        CLOUDY    37  37 100 NE17G23   29.69F WCI  28

$$

MDZ017>025-262100-
SOUTHERN MARYLAND

CITY           SKY/WX    TMP DP  RH WIND       PRES   REMARKS
PATUXENT RIVER DRIZZLE   37  34  89 N16       29.64F FOG     WCI  28
ST INIGOES     CLOUDY    39  34  82 N9G17     29.62F
LEONARDTOWN*   CLOUDY    34  32  93 N7        29.66F

$$

MDZ003>005-262100-
NORTH CENTRAL MARYLAND

CITY           SKY/WX    TMP DP  RH WIND       PRES   REMARKS
FREDERICK*     CLOUDY    28  23  80 E13       29.78S HAZE    WCI  18
HAGERSTOWN APT LGT SNOW  25  20  81 N12       29.73F WCI  14
WESTMINSTER*   CLOUDY    27  25  93 NE8       29.72S FOG     WCI  18

$$

MDZ501>502-262100-
WESTERN MARYLAND

CITY           SKY/WX    TMP DP  RH WIND       PRES   REMARKS
OAKLAND*       CLOUDY    27 N/A N/A SE5       29.57R FOG
CUMBERLAND*    CLOUDY    32  28  86 CALM      29.76R

$$

VAZ025>031-262100-
SHENANDOAH VALLEY

CITY           SKY/WX    TMP DP  RH WIND       PRES   REMARKS
WINCHESTER*    LGT SNOW  32  27  80 NE3       29.72S
FRONT ROYAL*   CLOUDY    32  30  93 N6        29.70S
LURAY*         CLOUDY    34  34 100 N13       29.67S WCI  25
NEW MARKET*    CLOUDY    32  31  96 N8        29.67S WCI  25
STAUNTON*      CLOUDY    35  33  92 N5        29.66S
WAYNESBORO*    CLOUDY    33  33  99 N5        29.63F

$$

WVZ021-048>050-054>055-262100-
EASTERN WEST VIRGINIA PANHANDLE

CITY           SKY/WX    TMP DP  RH WIND       PRES   REMARKS
MARTINSBURG    CLOUDY    28  22  78 N7        29.74S HAZE
PETERSBURG*    CLOUDY    31  30  96 N5        29.69S

$$

VAZ036>039-050-262100-
CENTRAL FOOTHILLS

CITY           SKY/WX    TMP DP  RH WIND       PRES   REMARKS
CHARLOTTESVILL CLOUDY    35  33  92 NE13      29.66F FOG     WCI  26
CULPEPER*      CLOUDY    36  34  93 N9        29.70F WCI  29
ORANGE*        CLOUDY    36  34  93 N13G18    29.69F WCI  27
GORDONSVILLE*  CLOUDY    34  33  95 NE8       29.67F WCI  27
WARRENTON*     CLOUDY    35  35 100 N12       29.70F WCI  26

$$

VAZ055>057-262100-
NORTH AND CENTRAL PIEDMONT

CITY           SKY/WX    TMP DP  RH WIND       PRES   REMARKS
FREDERICKSBRG* CLOUDY    36  36 100 N7        29.69S
STAFFORD*      CLOUDY    33  32  94 N8        29.74S WCI  27

$$

NCZ024-NYZ072-PAZ021-071-VAZ022-071-262100-
OTHER REGIONAL OBSERVATIONS

CITY           SKY/WX    TMP DP  RH WIND       PRES   REMARKS
NEW YORK CITY  HVY SNOW  24  19  81 NE13G20   29.88F VSB 1/4 WCI  12
PHILADELPHIA   LGT SNOW  28  23  81 NE22G30   29.79R WCI  14
PITTSBURGH     LGT SNOW  26  22  84 N10       29.70R WCI  16
ROANOKE        LGT RAIN  44  36  73 E7        29.62F
RICHMOND       CLOUDY    43  37  81 N14G22    29.62S
RALEIGH        CLOUDY    49  40  71 N6        29.58F

$$

ANZ530>537-262100-
MARINE OBSERVATIONS

STATION/POSITION TIME  TEMP    WIND        PRES
                       AIR SEA DIR/SP/G
                 (UTC) (F)     (DEG/KT/KT) (MB)
THOMAS PT LIGHT  2000   33 37   20/ 19/ 21 1006.1F
BALT KEY BRIDGE  2000   32      20/ 12/ 15 1006.2F
COVE POINT       2000   35      10/ 12/ 18 1003.7F
LEWISETTA        2000   38 40  350/  8/ 12 1003.1S
SOLOMONS ISLAND  2000      39                N/A
PINEY POINT      2000           10/ 12/ 15   N/A

$$




USA.gov is the U.S. government's official web portal to all federal, state and local government web resources and services.